Location: Cartwright
(53.7070°N, 57.0233°W)
Time: 11:29:41
(UTC-03:-30)

N. Korean satellite - Visible Passes

Search period start: 27 November 2020 00:00
Search period end: 07 December 2020 00:00
Orbit: 452 x 504 km, 97.2° (Epoch: 26 November)

Date Brightness Start Highest point End Pass type
(mag) Time Alt. Az. Time Alt. Az. Time Alt. Az.
27 Nov 8.1 05:31:09 10° NNE 05:34:31 38° E 05:37:55 10° SSE visible
27 Nov 7.7 07:04:51 10° N 07:07:42 23° WNW 07:10:36 10° WSW visible
27 Nov 9.4 17:46:31 10° SW 17:49:07 20° W 17:51:46 10° NW visible
28 Nov 9.2 05:05:16 10° NE 05:08:05 21° E 05:10:54 10° SE visible
28 Nov 7.0 06:38:12 10° N 06:41:34 40° WNW 06:44:58 10° SW visible
28 Nov 8.2 17:19:27 10° SSW 17:22:39 37° W 17:25:55 10° NNW visible
29 Nov 10.0 04:40:05 10° ENE 04:41:32 12° E 04:42:59 10° ESE visible
29 Nov 6.4 06:11:45 10° N 06:15:20 77° WNW 06:18:58 10° SSW visible
29 Nov 6.7 16:52:51 10° S 16:56:16 76° WSW 16:59:46 10° NNW visible
30 Nov 7.3 05:45:28 10° NNE 05:49:01 55° E 05:52:36 10° S visible
30 Nov 8.1 07:19:35 10° NNW 07:22:02 18° WNW 07:24:29 10° WSW visible
30 Nov 9.7 18:01:39 10° SW 18:03:40 15° W 18:05:42 10° NW visible
01 Dec 8.6 05:19:24 10° NNE 05:22:36 29° E 05:25:49 10° SSE visible
01 Dec 7.4 06:52:45 10° N 06:55:54 29° WNW 06:59:06 10° SW visible
01 Dec 8.9 17:34:10 10° SSW 17:37:07 26° W 17:40:08 10° NW visible
02 Dec 9.6 04:53:40 10° NE 04:56:05 17° E 04:58:29 10° SE visible
02 Dec 6.6 06:26:10 10° N 06:29:42 53° WNW 06:33:16 10° SSW visible
02 Dec 7.5 17:07:19 10° S 17:10:39 51° W 17:14:05 10° NNW visible
03 Dec 6.6 05:59:46 10° NNE 06:03:24 80° ESE 06:07:04 10° SSW visible
03 Dec 6.4 16:40:51 10° SSE 16:44:17 80° ENE 16:47:48 10° NNW visible
03 Dec 10.1 18:17:21 10° W 18:18:10 11° W 18:18:58 10° WNW visible
04 Dec 7.9 05:33:32 10° NNE 05:37:01 41° E 05:40:30 10° S visible
04 Dec 7.8 07:07:18 10° NNW 07:10:09 22° WNW 07:13:02 10° WSW visible
04 Dec 9.5 17:48:58 10° SW 17:51:32 19° W 17:54:09 10° NW visible
05 Dec 9.1 05:07:33 10° NE 05:10:31 23° E 05:13:29 10° SSE visible
05 Dec 7.1 06:40:35 10° N 06:43:58 38° WNW 06:47:23 10° SW visible
05 Dec 8.3 17:21:47 10° SSW 17:25:00 35° W 17:28:17 10° NNW visible
06 Dec 9.9 04:42:08 10° ENE 04:43:55 13° E 04:45:42 10° ESE visible
06 Dec 6.5 06:14:03 10° N 06:17:42 72° WNW 06:21:22 10° SSW visible
06 Dec 6.8 16:55:06 10° S 16:58:33 71° WSW 17:02:05 10° NNW visible
